Regional Weather Roundup
Issued by NWS State College, PA

Home | Current Version | Previous Version | Text Only | Print | Product List | Glossary Off
Versions: 1 2 3 4 5 6 7 8 9 10 11 12 13 14 15 16 17 18 19 20 21 22 23 24 25 26 27 28 29 30 31 32 33 34 35 36 37 38 39 40 41 42 43 44 45 46 47 48 49 50

000
ASUS41 KCTP 071510
RWRCTP

REGIONAL WEATHER ROUNDUP
NATIONAL WEATHER SERVICE STATE COLLEGE PA
1000 AM EST SUN FEB 07 2016

Note: "fair" indicates few or no clouds below 12,000 feet with no
significant weather and/or obstructions to visibility.

* = STATION THAT DOES NOT REPORT PRECIPITATION /E.G. RAIN...SNOW...ETC/
    THUNDER OR FOG.

PAZ002>004-007>009-013>016-020>023-029>032-071600-
WESTERN PENNSYLVANIA

CITY           SKY/WX    TMP DP  RH WIND       PRES   REMARKS
ERIE           SUNNY     38  21  50 S14       30.03F
MEADVILLE      MOSUNNY   34  20  56 S7        30.04S
FRANKLIN*      PTSUNNY   34  19  55 S10       30.08F
NEW CASTLE     CLOUDY    31  21  66 VRB6      30.09F
BEAVER COUNTY  NOT AVBL
BUTLER*        CLOUDY    32  19  59 S5        30.13F
PITTSBURGH INT CLOUDY    33  19  56 S5        30.09F
PITTSBURGH     SUNNY     38  19  46 S8        30.09F
INDIANA*       SUNNY     37  21  52 W5        30.12F
LATROBE        SUNNY     28  25  86 CALM      30.11F
WASHINGTON CO* PTSUNNY   36  21  55 S3        30.10F
$$

PAZ004>006-010>012-017>019-024>028-033>037-041-042-045-046-049>053-071600-
CENTRAL PENNSYLVANIA

CITY           SKY/WX    TMP DP  RH WIND       PRES   REMARKS
BRADFORD       SUNNY     30  19  63 S8        30.05S
DUBOIS         SUNNY     33  19  56 SW5       30.07F
CLEARFIELD     SUNNY     32  20  61 S3        30.10F
JOHNSTOWN      SUNNY     33  17  51 SW7       30.05F
ALTOONA        SUNNY     36  19  50 CALM      30.09F
STATE COLLEGE  SUNNY     37  19  48 CALM      30.10F
WILLIAMSPORT   SUNNY     30  22  72 CALM      30.15F
SELINSGROVE    SUNNY     33  24  69 SE3       30.16F
FT INDIANTOWN  SUNNY     33  24  69 SE6       30.15F
CAPITAL CITY   SUNNY     35  21  56 CALM      30.17F
HARRISBURG     MOSUNNY   33  24  69 SE3       30.17F
YORK           SUNNY     34  24  67 SE6       30.17S
$$

PAZ038>040-043-044-047-048-054-055-060>062-067>071-071600-
EASTERN PENNSYLVANIA

CITY           SKY/WX    TMP DP  RH WIND       PRES   REMARKS
SCRANTON       SUNNY     34  20  56 CALM      30.10F
MOUNT POCONO   SUNNY     35  16  45 NW5       30.06F
ALLENTOWN      SUNNY     34  23  64 SW3       30.16F
QUAKERTOWN*    SUNNY     37  25  60 CALM      30.17S
READING        SUNNY     34  23  64 CALM      30.17S
LANCASTER      SUNNY     31  26  82 CALM      30.17F
COATESVILLE    SUNNY     37  25  60 NW3       30.18R
POTTSTOWN      SUNNY     34  25  69 CALM      30.18F
BLUE BELL        N/A     36  28  75 CALM      30.17R
DOYLESTOWN     SUNNY     36  24  62 CALM      30.17S
WILLOW GROVE   NOT AVBL
NORTH PHILA    SUNNY     40  26  57 CALM      30.20F
PHILADELPHIA   PTSUNNY   36  25  64 SW3       30.20S
$$




USA.gov is the U.S. government's official web portal to all federal, state and local government web resources and services.